Moffett Field, CA

7:55 PM PDT on August 26, 2016 (GMT -0700)
Moffett Federal Air Field

Weather History for KNUQ - February, 2007

Change the Weather History Date:

Saturday, February 24, 2007

  Actual Average Record
Temperature  
Mean Temperature 48 °F 55 °F  
Max Temperature 57 °F 63 °F 76 °F (1992)
Min Temperature 39 °F 46 °F 34 °F (1974)
Degree Days  
Heating Degree Days 17    
Month to date heating degree days  
Since 1 July heating degree days  
Cooling Degree Days 0    
Month to date cooling degree days  
Year to date cooling degree days  
Moisture  
Dew Point 40 °F    
Average Humidity 72    
Maximum Humidity 94    
Minimum Humidity 55    
Precipitation  
Precipitation 0.05 in 0.12 in 0.94 in (1958)
Month to date precipitation 2.63  
Year to date precipitation 5.38  
Sea Level Pressure  
Sea Level Pressure 30.21 in    
Wind  
Wind Speed 5 mph (SSE)    
Max Wind Speed 14 mph    
Max Gust Speed -    
Visibility 9 miles    
Events Rain    
T = Trace of Precipitation, MM = Missing Value Source: NWS Daily Summary

Daily Weather History Graph

Daily Weather History Graph

Search for Another Location

Airport or City:

Trip Planner

Search our weather history database for the weather conditions in past years. The results will help you decide how hot, cold, wet, or windy it might be!

Date:

Astronomy

Feb. 24, 2007 Rise Set
Actual Time 6:46 AM PST 5:56 PM PST
Civil Twilight 6:20 AM PST 6:23 PM PST
Nautical Twilight 5:49 AM PST 6:53 PM PST
Astronomical Twilight 5:19 AM PST 7:23 PM PST
Moon 10:55 AM PST (2/24) 1:35 AM PST (2/24)
Length of Visible Light 12h 03m
Length of Day
11h 10m
First Quarter, 56% of the Moon is Illuminated
Feb 24
First Quarter
Mar 3
Full
Mar 11
Last Quarter
Mar 18
New
Mar 25
First Quarter

Hourly Weather History & Observations

Time (PST) Temp. Windchill Dew Point Humidity Pressure Visibility Wind Dir Wind Speed Gust Speed Precip Events Conditions
12:56 AM 43.0 °F - 33.1 °F 68% 30.31 in 10.0 mi Calm Calm - N/A   Clear
1:56 AM 39.9 °F - 32.0 °F 73% 30.31 in 10.0 mi Calm Calm - N/A   Clear
2:56 AM 39.0 °F 36.8 °F 33.1 °F 79% 30.31 in 10.0 mi SE 3.5 mph - N/A   Scattered Clouds
3:56 AM 39.0 °F 36.8 °F 34.0 °F 82% 30.32 in 10.0 mi ESE 3.5 mph - N/A   Mostly Cloudy
4:56 AM 42.1 °F 37.7 °F 34.0 °F 73% 30.33 in 10.0 mi SSE 6.9 mph - N/A   Overcast
5:56 AM 42.1 °F 38.4 °F 34.0 °F 73% 30.32 in 10.0 mi SSE 5.8 mph - N/A   Mostly Cloudy
6:56 AM 42.1 °F 37.1 °F 34.0 °F 73% 30.31 in 10.0 mi SE 8.1 mph - N/A   Overcast
7:15 AM 42.8 °F 38.6 °F 35.6 °F 76% 30.31 in 10.0 mi SSE 6.9 mph - N/A   Overcast
7:56 AM 44.1 °F 39.5 °F 36.0 °F 73% 30.32 in 10.0 mi SE 8.1 mph - N/A   Overcast
8:49 AM 46.4 °F 40.4 °F 35.6 °F 66% 30.30 in 10.0 mi SE 13.8 mph - N/A   Mostly Cloudy
8:56 AM 48.0 °F - 37.0 °F 66% 30.31 in 10.0 mi SE 12.7 mph - N/A   Scattered Clouds
9:56 AM 51.1 °F - 37.0 °F 59% 30.30 in 10.0 mi SE 8.1 mph - N/A   Overcast
10:56 AM 54.0 °F - 37.9 °F 55% 30.29 in 10.0 mi SE 8.1 mph - N/A   Overcast
11:56 AM 55.0 °F - 43.0 °F 64% 30.28 in 10.0 mi Variable 4.6 mph - N/A   Overcast
12:56 PM 57.0 °F - 42.1 °F 57% 30.25 in 10.0 mi WSW 10.4 mph - N/A   Overcast
1:56 PM 55.9 °F - 43.0 °F 62% 30.22 in 10.0 mi SSW 4.6 mph - N/A   Overcast
2:56 PM 54.0 °F - 44.1 °F 69% 30.19 in 10.0 mi SSE 8.1 mph - 0.00 in Rain Light Rain
3:56 PM 55.9 °F - 44.1 °F 64% 30.15 in 10.0 mi South 10.4 mph - 0.00 in   Mostly Cloudy
4:56 PM 55.9 °F - 42.1 °F 60% 30.14 in 10.0 mi SSW 8.1 mph - N/A   Mostly Cloudy
5:56 PM 55.0 °F - 42.1 °F 62% 30.13 in 10.0 mi South 6.9 mph - N/A   Overcast
6:56 PM 53.1 °F - 44.1 °F 71% 30.11 in 10.0 mi South 8.1 mph - N/A   Scattered Clouds
7:56 PM 53.1 °F - 43.0 °F 69% 30.10 in 10.0 mi SSW 10.4 mph - N/A   Overcast
8:56 PM 52.0 °F - 45.0 °F 77% 30.09 in 10.0 mi South 10.4 mph - 0.00 in   Mostly Cloudy
9:56 PM 51.1 °F - 46.0 °F 83% 30.07 in 9.0 mi South 9.2 mph - 0.00 in Rain Light Rain
10:56 PM 51.1 °F - 46.9 °F 86% 30.04 in 4.0 mi SSE 6.9 mph - 0.02 in Rain Light Rain
11:32 PM 50.0 °F - 48.2 °F 94% 30.05 in 6.0 mi East 3.5 mph - 0.01 in Rain Light Rain
11:48 PM 50.0 °F - 48.2 °F 94% 30.05 in 4.0 mi ESE 3.5 mph - 0.02 in Rain Light Rain
11:56 PM 50.0 °F - 48.0 °F 93% 30.05 in 4.0 mi ESE 6.9 mph - 0.03 in Rain Light Rain